Miscellaneous Local Product
Issued by NWS North Platte, NE

Home | Current Version | Previous Version | Graphics & Text | Print | Product List | Glossary On
Versions: 1 2 3 4 5 6 7 8 9 10 11 12 13 14 15 16 17 18 19 20 21 22 23 24 25 26 27 28 29 30 31 32 33 34 35 36 37 38 39 40 41 42 43 44 45 46 47 48 49 50
997
AXUS43 KLBF 292310
MISLBF


WESTERN AND NORTH CENTRAL NEBRASKA HOURLY WEATHER ROUNDUP
NATIONAL WEATHER SERVICE NORTH PLATTE NE
600 PM CDT FRI APR 29 2016

NOTE: "FAIR" INDICATES FEW OR NO CLOUDS BELOW 12,000 FEET WITH NO
SIGNIFICANT WEATHER AND/OR OBSTRUCTIONS TO VISIBILITY.

NOTE: STATIONS NOT REPORTING VARIABLES SUCH AS SKY/WEATHER OR
PRESSURE ARE PROVIDED BY RAWS AND APRS NETWORKS AND ARE NOT UNDER
NATIONAL WEATHER SERVICE QUALITY CONTROL.

...OBSERVATIONS IN AND NEAR THE EASTERN PANHANDLE OF NEBRASKA...

CITY           SKY/WX    TMP DP  RH WIND       PRES   REMARKS
PINE RIDGE     CLOUDY    41  34  76 E12       29.99F
CHADRON        CLOUDY    41  36  82 E16       29.99S
ALLIANCE       LGT RAIN  38  35  89 NE12      29.93F WCI  30
SIDNEY         SNOW      33  32  96 NE8       29.93F VSB 1/2 WCI  26
CRESCENT LAKE    N/A     36  35  95 NE7         N/A  WCI  30
BIG SPRINGS      N/A     40  38  92 NE8         N/A  WCI  34
$$

...OBSERVATIONS IN NORTHERN NEBRASKA AND FAR SOUTHERN SOUTH DAKOTA...

CITY           SKY/WX    TMP DP  RH WIND       PRES   REMARKS
WINNER         CLOUDY    46  38  73 E14       30.02F
VALENTINE      CLOUDY    42  36  79 NE16      29.99F
THEDFORD       CLOUDY    42  38  84 NE14      29.95F
AINSWORTH      CLOUDY    41  37  87 NE14      29.98F
O`NEILL        CLOUDY    43  40  89 NE16      30.00F
ORD            CLOUDY    44  38  79 NE18G24   29.92F
BROKEN BOW     CLOUDY    42  38  85 E15G23    29.92F
VALENTINE NWR    N/A     41  37  87 NE9G16      N/A
BUTTE            N/A     41  39  92 NE12G18     N/A
HALSEY           N/A     40  36  87 NE8         N/A  WCI  34
CHAMBERS         N/A     43  39  86 E9          N/A
EWING            N/A     42  40  94 NE13G21     N/A
$$

...OBSERVATIONS IN SOUTHWEST NEBRASKA AND FAR NORTHEAST COLORADO...

CITY           SKY/WX    TMP DP  RH WIND       PRES   REMARKS
IMPERIAL       LGT RAIN  39  37  92 N18       29.89S FOG     WCI  30
OGALLALA       LGT RAIN  39  36  87 NE8       29.93F WCI  34
NORTH PLATTE   CLOUDY    41  38  89 NE14      29.92F
MCCOOK         CLOUDY    43  38  82 NE23      29.84F
LEXINGTON      CLOUDY    43  39  86 NE16      29.90F
PAXTON           N/A     41  38  89 NE12        N/A
STAPLETON        N/A     39  36  89 NE8         N/A  WCI  33
GOTHENBURG       N/A     42  37  83 NE14        N/A
CALLAWAY         N/A     41  38  89 E12         N/A
$$

...OBSERVATIONS IN CENTRAL LINCOLN COUNTY AREA...

CITY           SKY/WX    TMP DP  RH WIND       PRES   REMARKS
N.P. AIRPORT   CLOUDY    41  38  89 NE14      29.92F
N.P. DOWNTOWN    N/A     41  38  89 NE8G15      N/A
N.P. SOUTHEAST   N/A     40  37  88 NE6         N/A
N.P. HILLCREST   N/A     41  38  89 E15         N/A
$$

...SOME OBSERVATIONS FROM AROUND THE REGION...

CITY           SKY/WX    TMP DP  RH WIND       PRES   REMARKS
DENVER         LGT SNOW  33  30  88 N8        29.91F VSB 1   WCI  26
LARAMIE        LGT SNOW  32  27  81 SE13      29.87F WCI  22
CHEYENNE       SNOW      32  31  96 CALM      29.91F VSB 1/2
SCOTTSBLUFF    LGT RAIN  37  36  93 E9        29.96F WCI  31
RAPID CITY     CLOUDY    45  34  65 E12       30.04S
BISMARCK       MOSUNNY   62  33  33 E17       30.09F
PIERRE         CLOUDY    50  38  63 SE13      30.05F
SIOUX FALLS    CLOUDY    50  39  66 E12       30.07F
OMAHA          CLOUDY    49  43  80 E10       30.00F
GRAND ISLAND   CLOUDY    43  40  89 NE21      29.91F
KANSAS CITY    HVY RAIN  52  50  93 N9        29.97R FOG
WICHITA        CLOUDY    54  49  83 NE20      29.70F
OKLAHOMA CITY  CLOUDY    64  63  96 NW14      29.56R FOG
DALLAS         CLOUDY    74  65  73 SW13      29.54F
AMARILLO       MOSUNNY   57  46  66 NW20      29.75R
DODGE CITY     LGT RAIN  45  43  93 E13       29.76R FOG
HAYS           CLOUDY    46  37  71 E24       29.75F
GOODLAND       HVY SNOW  32  32 100 NW7       29.88R VSB 1/4 WCI  26
$$




USA.gov is the U.S. government's official web portal to all federal, state and local government web resources and services.